sat.trackr.live / text

‹ back to catalog

STARLINK-36175

NORAD 67012 · 2025-293K

PAYLOAD ACTIVE UNKNOWN

§ Identity

Operator
Country
US
Launch date
2025-12-10
Launch site
AFWTR
Launch vehicle
Mass (kg)
RCS (m²)

Purposes: comms

External: N2YO · Heavens-Above · Gunter

§ Orbital elements

Epoch: 2026-05-25T01:32:26.619072Z

Period
96.11 min
Inclination
70.0007°
Eccentricity
0.0003323
Mean motion
14.98340749 rev/d
Perigee alt
569.7 km
Apogee alt
574.3 km
Semi-major
6,950.2 km
B*
4.8361e-4
RAAN
262.0594°
Arg perigee
268.9909°
Mean anomaly
91.0869°
Rev number
2,632

§ Raw data

STARLINK-361751 67012U 25293K   26145.06419698  .00005684  00000+0  48361-3 0  99952 67012  70.0007 262.0594 0003323 268.9909  91.0869 14.98340749 26329

JSON: /api/v1/satellites/67012 · /tle

For live sub-satellite position, see the globe view (requires WebGL).

§ Visibility from observer

Set your observer location to see the next 7 days of passes ≥ 10°. The values pass through the URL so the page stays shareable.

No JS? Fill the form by hand. The geolocation button needs JavaScript.